[[{"header":{"parameterUnit":"m.s-1","parameterCategory":2,"la1":30.2991,"la2":30.254,"lo1":-89.0895,"lo2":-89.0444,"dy":0.0017,"dx":0.0017,"nx":28,"ny":28,"refTime":"2023-08-14T03:00:00:Z","depth":"0","parameterNumber":2,"parameterNumberName":"U-component_of_CURRENTS"},"data":[0,0,0,0,0,0,0,0,0,0,0,0,0,0,0,0,0,0,0,0,0,0,0,0,0,0,0,0,0,0,0,0,0,0,0,0,0,0,0,0,0,0,0,0,0,0,0,0,0,0,0,0,0,0,0,0,0,0,0.4071,0.4073,0,0.4236,0.4238,0.4239,0.4128,0.4123,0.4119,0.4114,0.4133,0.4137,0.4142,0,0,0,0,0,0,0,0,0,0,0,0,0,0.3894,0.3895,0.407,0.4073,0.4076,0.4236,0.4238,0.424,0.4129,0.4123,0.4118,0.4112,0.4131,0.4137,0.4142,0,0,0,0,0,0,0,0,0,0,0,0,0,0.4,0.3896,0.407,0.4044,0.4044,0.4236,0.4238,0.424,0.413,0.4123,0.4116,0.411,0.4129,0.4136,0.4143,0.4322,0,0,0.4165,0.4168,0,0,0,0,0,0,0,0,0.3993,0.4005,0.4045,0.4046,0.4047,0.416,0.4183,0.4262,0.4131,0.4091,0.4114,0.4107,0.4137,0.4143,0.4183,0.4323,0.4324,0.4165,0.417,0.4173,0.4175,0,0,0,0,0,0,0,0.3986,0.3999,0.413,0.4049,0.405,0.4106,0.4111,0.4199,0.4142,0.4094,0.4088,0.4118,0.4135,0.4176,0.4182,0.4324,0.4165,0.4171,0.4176,0.4178,0.4469,0.4472,0,0,0,0,0,0,0.3974,0.3992,0.4125,0.4135,0.401,0.4114,0.4119,0.4125,0.4144,0.4144,0.4124,0.4113,0.4168,0.4174,0.4182,0.4336,0.4173,0.4179,0.4183,0.4466,0.447,0.4474,0,0,0,0,0,0,0.3969,0.3983,0.4118,0.4073,0.4095,0.4123,0.4132,0.4132,0.4174,0.417,0.4163,0.4164,0.4163,0.4172,0.4264,0.4336,0.4182,0.4189,0.4462,0.4467,0.4472,0.468,0,0,0,0,0,0,0.3963,0.398,0.3992,0.4072,0.4097,0.4248,0.4139,0.4141,0.4206,0.4193,0.4205,0.4199,0.4158,0.4255,0.4272,0.4343,0.4194,0.4457,0.4464,0.447,0.4669,0.4692,0.4712,0,0,0,0,0,0.3956,0.3997,0.3991,0.4008,0.4107,0.4254,0.4274,0.4267,0.4215,0.4271,0.4262,0.4198,0.4304,0.4267,0.4285,0.4359,0.4454,0.4462,0.447,0.466,0.4688,0.4711,0,0,0,0,0,0,0.3946,0.3994,0.3986,0.4043,0.415,0.4237,0.4293,0.4306,0.4354,0.4323,0.4288,0.4288,0.439,0.436,0.4318,0.4455,0.4355,0.4367,0.4492,0.4519,0.454,0.4538,0.42,0,0,0,0,0,0.3953,0.3985,0.407,0.4134,0.4177,0.4249,0.4309,0.4321,0.4376,0.4388,0.4404,0.4405,0.445,0.4467,0.4506,0.4623,0.4595,0.4665,0.4687,0.4705,0.4714,0.479,0.482,0.45,0.45,0.4499,0,0,0.3986,0.4011,0.4039,0.4136,0.4202,0.4309,0.4265,0.4378,0.4458,0.4393,0.4496,0.4512,0.4503,0.4604,0.4643,0.458,0.4776,0.4715,0.4731,0.473,0.4802,0.4833,0.4861,0.4505,0.4504,0.4503,0,0,0.4074,0.4078,0.4134,0.4225,0.4334,0.4382,0.4425,0.4535,0.4557,0.4696,0.4642,0.4719,0.479,0.4805,0.4814,0.4996,0.4903,0.4974,0.5077,0.5153,0.5181,0.5204,0.5185,0.5205,0.4966,0.4967,0.4967,0,0.4103,0.4176,0.4195,0.4288,0.4372,0.4417,0.4536,0.4603,0.4731,0.4775,0.4736,0.488,0.4893,0.5004,0.504,0.5052,0.5025,0.4984,0.5184,0.5207,0.5227,0.5202,0.5221,0.4978,0.4977,0.4975,0.4974,0,0.425,0.4311,0.4372,0.4469,0.4567,0.4694,0.4778,0.4862,0.4895,0.4955,0.5091,0.5135,0.5193,0.5223,0.5189,0.5335,0.5244,0.5221,0.5122,0.5273,0.5235,0.5252,0.4994,0.499,0.4986,0.4984,0,0,0.4307,0.4436,0.4466,0.4529,0.4671,0.4776,0.4896,0.5033,0.5099,0.5216,0.532,0.5441,0.5438,0.5449,0.5435,0.5504,0.564,0.5416,0.5415,0.54,0.5729,0.5384,0.5367,0.5641,0.5646,0.565,0.5634,0,0.442,0.4607,0.4637,0.483,0.4936,0.499,0.5101,0.5218,0.5284,0.539,0.5456,0.5548,0.5525,0.5549,0.5634,0.5643,0.5696,0.5641,0.558,0.5576,0.5257,0.5381,0.5062,0.4997,0.565,0.5653,0.5654,0,0.4557,0.4655,0.4853,0.4984,0.5033,0.5134,0.5286,0.539,0.551,0.5555,0.565,0.5667,0.5795,0.5744,0.5861,0.5811,0.5789,0.5789,0.5788,0.5402,0.5264,0.4956,0.5002,0.4936,0.5679,0.5677,0.5675,0,0.463,0.4802,0.4953,0.5023,0.5181,0.5245,0.5321,0.5446,0.5502,0.5642,0.5678,0.5822,0.5865,0.5928,0.5887,0.5892,0.5955,0.5965,0.5634,0.5606,0.5288,0.5221,0.5262,0.6055,0.6056,0.6056,0.6056,0,0.4749,0.4865,0.4986,0.5088,0.5217,0.5307,0.5421,0.5505,0.559,0.5642,0.5747,0.5772,0.5915,0.5928,0.5924,0.5779,0.5983,0.5659,0.5598,0.534,0.5282,0.5164,0.517,0.6055,0.6055,0.6055,0.6055,0,0.481,0.4911,0.5066,0.5224,0.5256,0.5353,0.5428,0.5484,0.5577,0.5636,0.567,0.5762,0.574,0.5781,0.5842,0.5759,0.552,0.5592,0.5212,0.5103,0.4693,0.4718,0.4477,0.4378,0.526,0.5251,0.5244,0,0.4848,0.4947,0.5137,0.5195,0.5251,0.5355,0.5393,0.5477,0.55,0.5579,0.5587,0.5586,0.5491,0.5403,0.528,0.5161,0.5151,0.4795,0.4767,0.4618,0.4611,0.4531,0.4467,0.4442,0.4429,0.4419,0.441,0,0.4893,0.4975,0.5114,0.5224,0.5279,0.532,0.5368,0.5347,0.5409,0.5395,0.5308,0.5225,0.5079,0.4757,0.458,0.4502,0.4544,0.4561,0.4573,0.4089,0.3849,0.3736,0.4467,0.4315,0.4325,0.4332,0.4337,0.4341,0.4901,0.499,0.5147,0.5216,0.5267,0.5216,0.5096,0.5097,0.501,0.4803,0.494,0.462,0.4401,0.4056,0.3959,0.3627,0.3803,0.3516,0.3595,0.3556,0.3342,0.3774,0.344,0.3444,0.3447,0.3451,0.3454,0,0.4857,0.4972,0.5085,0.5127,0.5042,0.5099,0.4997,0.4755,0.4464,0.4367,0.4167,0.3758,0.3398,0.3237,0.2926,0.2758,0.2744,0.2699,0.2644,0.2666,0.319,0.3036,0.2395,0.2395,0.2395,0.2395,0.2395,0.2395,0.4854,0.4944,0.4989,0.4841,0.4793,0.4492,0.4312,0.4009,0.3823,0.3314,0.2975,0.2872,0.2828,0.2603,0.2342,0.2272,0.2255,0.1982,0.2197,0.2697,0.2785,0.287,0.2732,0.2037,0.2037,0.1518,0.1514,0.1512]},{"header":{"parameterUnit":"m.s-1","parameterCategory":2,"la1":30.2991,"la2":30.254,"lo1":-89.0895,"lo2":-89.0444,"dy":0.0017,"dx":0.0017,"nx":28,"ny":28,"refTime":"2023-08-14T03:00:00:Z","depth":"0","parameterNumber":3,"parameterNumberName":"V-component_of_CURRENTS"},"data":[0,0,0,0,0,0,0,0,0,0,0,0,0,0,0,0,0,0,0,0,0,0,0,0,0,0,0,0,0,0,0,0,0,0,0,0,0,0,0,0,0,0,0,0,0,0,0,0,0,0,0,0,0,0,0,0,0,0,0.0376,0.0376,0,0.0368,0.0368,0.0367,0.0336,0.0336,0.0335,0.0335,0.0358,0.0359,0.036,0,0,0,0,0,0,0,0,0,0,0,0,0,0.0333,0.0334,0.0376,0.0376,0.0377,0.0368,0.0368,0.0367,0.0336,0.0336,0.0335,0.0335,0.0358,0.0359,0.036,0,0,0,0,0,0,0,0,0,0,0,0,0,0.0338,0.0334,0.0376,0.0363,0.0362,0.0368,0.0368,0.0367,0.0336,0.0336,0.0335,0.0335,0.0357,0.0359,0.036,0.0382,0,0,0.0365,0.0365,0,0,0,0,0,0,0,0,0.0338,0.0339,0.0364,0.0364,0.0362,0.0355,0.0361,0.0375,0.0336,0.0342,0.0335,0.0334,0.0363,0.0364,0.0358,0.0383,0.0384,0.0365,0.0366,0.0366,0.0367,0,0,0,0,0,0,0,0.0337,0.0339,0.037,0.0365,0.0364,0.0346,0.0346,0.0363,0.0354,0.0342,0.034,0.0345,0.0362,0.0357,0.0359,0.0384,0.0365,0.0366,0.0367,0.0368,0.0455,0.0457,0,0,0,0,0,0,0.0348,0.0339,0.037,0.037,0.0352,0.0348,0.0348,0.0356,0.0353,0.0353,0.0346,0.0344,0.0355,0.0357,0.036,0.0407,0.0366,0.0368,0.0369,0.0454,0.0456,0.0457,0,0,0,0,0,0,0.0347,0.0351,0.037,0.0356,0.0358,0.035,0.0359,0.0356,0.0354,0.0356,0.0356,0.0348,0.0354,0.0357,0.0364,0.0407,0.0368,0.037,0.0452,0.0454,0.0456,0.0487,0,0,0,0,0,0,0.0346,0.0351,0.0357,0.0357,0.0359,0.0382,0.0359,0.0356,0.036,0.0357,0.0358,0.0359,0.0354,0.0361,0.0365,0.0408,0.0371,0.045,0.0453,0.0456,0.0484,0.049,0.0495,0,0,0,0,0,0.0344,0.0359,0.0358,0.0361,0.037,0.0383,0.0382,0.0371,0.036,0.0366,0.0353,0.0359,0.0383,0.0363,0.0367,0.0411,0.0449,0.0452,0.0456,0.0482,0.0489,0.0495,0,0,0,0,0,0,0.0345,0.0358,0.0356,0.0374,0.0382,0.0379,0.0384,0.0378,0.0372,0.0367,0.0362,0.0362,0.0389,0.0394,0.0373,0.0446,0.0425,0.0429,0.0444,0.045,0.0456,0.0514,0.0372,0,0,0,0,0,0.035,0.0361,0.0373,0.0386,0.0394,0.039,0.0393,0.0388,0.0385,0.0381,0.0382,0.039,0.0407,0.042,0.043,0.0465,0.0498,0.0502,0.0508,0.0512,0.0564,0.0655,0.0674,0.0468,0.0468,0.0468,0,0,0.0355,0.0362,0.0369,0.0387,0.0389,0.0406,0.0389,0.04,0.0421,0.0388,0.0409,0.0404,0.0418,0.0449,0.0465,0.0459,0.0573,0.0516,0.052,0.057,0.0661,0.0681,0.0699,0.047,0.047,0.0469,0,0,0.0366,0.0378,0.0389,0.04,0.0413,0.0419,0.0426,0.0431,0.0442,0.046,0.0444,0.047,0.0485,0.0511,0.0526,0.0576,0.0593,0.0574,0.0657,0.0743,0.0761,0.0778,0.0781,0.0799,0.0583,0.0583,0.0583,0,0.0372,0.0388,0.0395,0.041,0.0427,0.0429,0.0452,0.0468,0.0473,0.0513,0.0476,0.0544,0.0532,0.0613,0.0615,0.0595,0.0617,0.0623,0.0752,0.077,0.0787,0.0787,0.0806,0.0585,0.0585,0.0585,0.0585,0,0.0391,0.0405,0.0416,0.0439,0.0459,0.0479,0.0509,0.0539,0.0553,0.0584,0.0662,0.0649,0.0709,0.0695,0.0664,0.0782,0.0744,0.0739,0.0737,0.081,0.0803,0.0822,0.0588,0.0587,0.0587,0.0586,0,0,0.0419,0.0426,0.0435,0.0456,0.0479,0.051,0.0559,0.0633,0.0715,0.0725,0.0843,0.0844,0.0866,0.0887,0.0863,0.0922,0.1004,0.0882,0.0886,0.0887,0.1145,0.1017,0.1025,0.1024,0.1029,0.1033,0.1067,0,0.0439,0.0465,0.0469,0.052,0.0546,0.0578,0.0642,0.0713,0.0777,0.0892,0.0934,0.1019,0.0933,0.097,0.102,0.1044,0.1068,0.0993,0.1075,0.1077,0.0959,0.1049,0.0975,0.0994,0.1086,0.1089,0.1091,0,0.0478,0.0486,0.0523,0.0587,0.0609,0.0644,0.0784,0.0842,0.0997,0.1057,0.116,0.1201,0.1303,0.1212,0.1305,0.1262,0.121,0.1196,0.1197,0.1102,0.099,0.0951,0.1025,0.0952,0.112,0.1118,0.1116,0,0.0522,0.0549,0.0582,0.0596,0.0657,0.0708,0.0763,0.09,0.1013,0.1182,0.1295,0.1404,0.1494,0.1498,0.1445,0.1401,0.1528,0.1464,0.1283,0.1269,0.1241,0.1217,0.1271,0.1516,0.1516,0.1516,0.1516,0,0.0567,0.0605,0.0605,0.063,0.073,0.0751,0.0908,0.0988,0.1156,0.1339,0.1389,0.155,0.1581,0.1643,0.1549,0.1488,0.161,0.1336,0.1305,0.1236,0.1212,0.1172,0.1119,0.1517,0.1517,0.1516,0.1516,0,0.0632,0.0621,0.0674,0.0718,0.0755,0.0832,0.0993,0.1134,0.1244,0.1488,0.1556,0.1724,0.1796,0.175,0.1771,0.1625,0.1496,0.148,0.1348,0.13,0.1036,0.0986,0.1015,0.1001,0.1322,0.132,0.1318,0,0.0657,0.0682,0.0749,0.0812,0.0837,0.0949,0.1073,0.1189,0.135,0.1598,0.1748,0.1867,0.1977,0.192,0.1705,0.1522,0.1434,0.1291,0.1192,0.1051,0.0975,0.0941,0.0927,0.1137,0.1133,0.1131,0.1129,0,0.0715,0.0742,0.0793,0.0922,0.1033,0.1174,0.1334,0.1464,0.164,0.1813,0.2044,0.213,0.2039,0.1862,0.1563,0.1417,0.1221,0.1222,0.1173,0.0928,0.0812,0.0772,0.1022,0.1104,0.1107,0.1108,0.111,0.1111,0.0774,0.0831,0.0918,0.106,0.1201,0.1391,0.1509,0.1681,0.1907,0.2126,0.221,0.2275,0.1983,0.1581,0.1389,0.0966,0.102,0.0824,0.0796,0.0792,0.0732,0.0872,0.0855,0.0856,0.0857,0.0857,0.0858,0,0.0836,0.0928,0.1061,0.1232,0.1411,0.1463,0.1701,0.1801,0.2026,0.2178,0.2308,0.2116,0.1757,0.139,0.0824,0.0585,0.0553,0.0496,0.048,0.0507,0.0722,0.0665,0.0492,0.0492,0.0492,0.0493,0.0493,0.0493,0.0884,0.1023,0.1107,0.1398,0.152,0.172,0.1838,0.1964,0.207,0.2151,0.2105,0.2083,0.1809,0.0944,0.0428,0.033,0.0274,0.0178,0.0221,0.0378,0.0409,0.0438,0.0376,0.0146,0.0145,0.0026,0.0024,0.0023]}],[{"header":{"parameterUnit":"m.s-1","parameterCategory":2,"la1":30.2991,"la2":30.254,"lo1":-89.0895,"lo2":-89.0444,"dy":0.0017,"dx":0.0017,"nx":28,"ny":28,"refTime":"2023-08-14T03:00:00:Z","depth":"2","parameterNumber":2,"parameterNumberName":"U-component_of_CURRENTS"},"data":[0,0,0,0,0,0,0,0,0,0,0,0,0,0,0,0,0,0,0,0,0,0,0,0,0,0,0,0,0,0,0,0,0,0,0,0,0,0,0,0,0,0,0,0,0,0,0,0,0,0,0,0,0,0,0,0,0,0,0.2833,0.2835,0,0.299,0.2992,0.2993,0.2966,0.2963,0.2961,0.2959,0.2889,0.2889,0.289,0,0,0,0,0,0,0,0,0,0,0,0,0,0.2775,0.2774,0.2833,0.2835,0.2837,0.299,0.2992,0.2994,0.2966,0.2963,0.296,0.2957,0.2889,0.2889,0.289,0,0,0,0,0,0,0,0,0,0,0,0,0,0.2849,0.2774,0.2832,0.2844,0.2847,0.2989,0.2992,0.2994,0.2967,0.2963,0.2959,0.2956,0.2889,0.2889,0.289,0.2968,0,0,0.2892,0.2892,0,0,0,0,0,0,0,0,0.2845,0.2851,0.284,0.2844,0.2847,0.2957,0.2946,0.2975,0.2968,0.2918,0.2958,0.2954,0.2896,0.2896,0.2932,0.2965,0.2962,0.2892,0.2892,0.2893,0.2893,0,0,0,0,0,0,0,0.2839,0.2846,0.2892,0.2843,0.2848,0.2934,0.2937,0.2954,0.2919,0.2922,0.2921,0.2945,0.2895,0.2932,0.293,0.2961,0.2892,0.2893,0.2893,0.2893,0.3048,0.3051,0,0,0,0,0,0,0.2816,0.2839,0.2887,0.2897,0.284,0.2936,0.2941,0.2923,0.2924,0.2923,0.2948,0.2943,0.2932,0.2929,0.2927,0.2959,0.2893,0.2893,0.2894,0.3044,0.3048,0.3052,0,0,0,0,0,0,0.2814,0.2817,0.2881,0.2877,0.2891,0.294,0.2922,0.2928,0.2951,0.2947,0.294,0.2962,0.2929,0.2926,0.2902,0.2957,0.2894,0.2894,0.304,0.3045,0.305,0.3062,0,0,0,0,0,0,0.2811,0.2814,0.2828,0.2874,0.289,0.2877,0.2926,0.2934,0.2974,0.2968,0.2957,0.2948,0.2926,0.2901,0.2903,0.2957,0.2895,0.3035,0.3042,0.3049,0.3057,0.3067,0.3076,0,0,0,0,0,0.2807,0.2847,0.2826,0.2835,0.2893,0.2875,0.2887,0.2913,0.2978,0.2934,0.2963,0.2948,0.2949,0.2902,0.2904,0.296,0.3032,0.304,0.3048,0.3052,0.3065,0.3075,0,0,0,0,0,0,0.2856,0.285,0.2827,0.2866,0.2822,0.2868,0.2909,0.2926,0.2934,0.2954,0.2958,0.2947,0.2973,0.2971,0.292,0.3037,0.3006,0.3015,0.3009,0.3021,0.303,0.3063,0.2895,0,0,0,0,0,0.2864,0.2857,0.2839,0.2852,0.2854,0.2885,0.291,0.2895,0.291,0.2915,0.2937,0.2982,0.3024,0.3011,0.304,0.307,0.3127,0.3127,0.3136,0.3144,0.3179,0.3364,0.3394,0.308,0.308,0.3079,0,0,0.2891,0.2886,0.2887,0.2858,0.2871,0.289,0.2887,0.2894,0.2932,0.2908,0.2998,0.301,0.3045,0.3084,0.3099,0.3069,0.3245,0.3154,0.3159,0.3192,0.3376,0.3407,0.3434,0.3085,0.3084,0.3083,0,0,0.2935,0.2926,0.2933,0.2899,0.288,0.2903,0.2896,0.2925,0.2946,0.3006,0.3029,0.3046,0.3139,0.3136,0.3164,0.325,0.3304,0.3295,0.3343,0.3521,0.3548,0.3573,0.3594,0.3621,0.3282,0.3282,0.3282,0,0.2959,0.2941,0.2928,0.2925,0.292,0.2913,0.2911,0.2967,0.2984,0.3044,0.303,0.3217,0.3181,0.3261,0.3274,0.3268,0.3356,0.3278,0.3533,0.3559,0.3585,0.3601,0.3631,0.3284,0.3283,0.3283,0.3283,0,0.2979,0.2972,0.2982,0.2968,0.2975,0.2939,0.2987,0.3043,0.3125,0.3193,0.3302,0.3276,0.3384,0.3376,0.3344,0.3502,0.3494,0.3531,0.3492,0.3617,0.3625,0.3656,0.3286,0.3285,0.3285,0.3284,0,0,0.2969,0.2979,0.297,0.2962,0.2958,0.2964,0.3082,0.3154,0.3288,0.3344,0.3488,0.3527,0.3552,0.3583,0.3535,0.363,0.3792,0.3658,0.3667,0.3656,0.4127,0.3775,0.3773,0.3921,0.3929,0.3935,0.4024,0,0.2941,0.2957,0.2954,0.2972,0.2997,0.3021,0.3135,0.3237,0.3359,0.3513,0.3553,0.3688,0.3626,0.3665,0.3755,0.3796,0.3896,0.376,0.403,0.4035,0.3693,0.3806,0.3517,0.3548,0.4055,0.406,0.4063,0,0.2953,0.2946,0.295,0.2996,0.3005,0.3044,0.3217,0.3295,0.3531,0.3642,0.3796,0.3875,0.3962,0.3929,0.4112,0.4055,0.4121,0.4145,0.4152,0.3856,0.3744,0.3531,0.3585,0.4115,0.4111,0.4107,0.4104,0,0.2948,0.296,0.2953,0.2941,0.3006,0.3059,0.3138,0.3369,0.3468,0.375,0.388,0.405,0.4125,0.4286,0.4283,0.429,0.4468,0.4487,0.4226,0.4196,0.4012,0.3952,0.4717,0.4717,0.4717,0.4717,0.4717,0,0.2891,0.2893,0.297,0.2916,0.2999,0.308,0.3213,0.3358,0.3564,0.3706,0.3932,0.4042,0.4262,0.4355,0.4379,0.4322,0.4572,0.4252,0.4234,0.3988,0.3928,0.4492,0.4465,0.472,0.4719,0.4719,0.4718,0,0.2869,0.2873,0.2856,0.2904,0.2976,0.3032,0.3205,0.3358,0.3557,0.3739,0.3843,0.4106,0.4229,0.4309,0.4502,0.4392,0.4404,0.4342,0.3924,0.3851,0.3991,0.3965,0.4111,0.41,0.4091,0.4083,0.4076,0,0.2841,0.2846,0.2854,0.2903,0.2904,0.3049,0.3205,0.3363,0.3476,0.3736,0.379,0.4009,0.4065,0.4094,0.4039,0.3994,0.4186,0.3667,0.361,0.3981,0.395,0.3937,0.3923,0.336,0.3349,0.3339,0.3331,0,0.2797,0.2793,0.2791,0.2873,0.2965,0.3089,0.3255,0.3317,0.3503,0.3598,0.369,0.3752,0.3769,0.3573,0.3484,0.3433,0.3632,0.3456,0.4099,0.349,0.3263,0.3233,0.3249,0.3245,0.3254,0.326,0.3265,0.3268,0.2825,0.2815,0.2835,0.2875,0.2994,0.3112,0.3124,0.3247,0.3296,0.331,0.3438,0.3341,0.3333,0.3016,0.2879,0.2787,0.3055,0.2946,0.2985,0.3032,0.2861,0.2624,0.2448,0.2451,0.2455,0.2458,0.246,0,0.2799,0.2841,0.2909,0.2875,0.2917,0.3018,0.3152,0.3072,0.2986,0.303,0.2955,0.2635,0.2452,0.2451,0.2168,0.2081,0.2178,0.1997,0.2149,0.2232,0.2306,0.2108,0.1491,0.1488,0.1486,0.1483,0,0,0.2856,0.282,0.279,0.2773,0.2816,0.2761,0.2787,0.2667,0.2605,0.2431,0.2293,0.2369,0.2387,0.1947,0.1841,0.1629,0.1945,0.1558,0.2336,0.2604,0.2676,0.2841,0.2621,0,0,0,0,0]},{"header":{"parameterUnit":"m.s-1","parameterCategory":2,"la1":30.2991,"la2":30.254,"lo1":-89.0895,"lo2":-89.0444,"dy":0.0017,"dx":0.0017,"nx":28,"ny":28,"refTime":"2023-08-14T03:00:00:Z","depth":"2","parameterNumber":3,"parameterNumberName":"V-component_of_CURRENTS"},"data":[0,0,0,0,0,0,0,0,0,0,0,0,0,0,0,0,0,0,0,0,0,0,0,0,0,0,0,0,0,0,0,0,0,0,0,0,0,0,0,0,0,0,0,0,0,0,0,0,0,0,0,0,0,0,0,0,0,0,0.0062,0.0061,0,0.0026,0.0026,0.0025,0.0028,0.0028,0.0029,0.0029,-0.0001,-0.0002,-0.0003,0,0,0,0,0,0,0,0,0,0,0,0,0,0.007,0.007,0.0062,0.0061,0.0061,0.0026,0.0026,0.0025,0.0028,0.0028,0.0029,0.0029,-0.0,-0.0002,-0.0003,0,0,0,0,0,0,0,0,0,0,0,0,0,0.0055,0.007,0.0062,0.0056,0.0055,0.0026,0.0026,0.0025,0.0028,0.0028,0.0029,0.0029,0.0,-0.0002,-0.0003,-0.0024,0,0,-0.0008,-0.0009,0,0,0,0,0,0,0,0,0.0056,0.0055,0.0058,0.0056,0.0055,0.003,0.0017,0.0008,0.0028,0.004,0.0029,0.0029,0.0008,0.0006,0.0001,-0.0026,-0.0027,-0.0009,-0.001,-0.001,-0.0011,0,0,0,0,0,0,0,0.0057,0.0056,0.005,0.0057,0.0055,0.0034,0.0033,0.0016,0.0023,0.0039,0.0039,0.0031,0.0008,0.0003,0.0,-0.0027,-0.0008,-0.001,-0.0011,-0.0012,0.0018,0.002,0,0,0,0,0,0,0.0061,0.0058,0.0051,0.0048,0.0055,0.0033,0.0033,0.0039,0.0023,0.0021,0.0031,0.0032,0.0005,0.0002,-0.0001,0.0019,-0.001,-0.0012,-0.0013,0.0016,0.0018,0.002,0,0,0,0,0,0,0.0061,0.0061,0.0052,0.005,0.0047,0.0033,0.004,0.0038,0.0034,0.0017,0.0015,0.0029,0.0005,0.0002,-0.0012,0.0016,-0.0013,-0.0014,0.0014,0.0017,0.0019,0.0029,0,0,0,0,0,0,0.0062,0.0062,0.0066,0.0051,0.0047,0.005,0.0039,0.0037,0.0028,0.0029,0.0014,0.0012,0.0006,-0.001,-0.0014,0.0013,-0.0015,0.0012,0.0015,0.0018,0.0026,0.0032,0.0036,0,0,0,0,0,0.0063,0.0075,0.0067,0.0066,0.0055,0.005,0.0047,0.0039,0.0027,0.0035,0.0017,0.0013,0.0011,-0.0011,-0.0016,0.0011,0.001,0.0014,0.0018,0.0024,0.0031,0.0036,0,0,0,0,0,0,0.0083,0.0075,0.0067,0.0077,0.0067,0.005,0.0052,0.0037,0.0028,0.0026,0.0007,0.0004,0.0007,0.001,-0.0013,0.0037,0.0021,0.0024,0.0028,0.0034,0.0038,0.0089,-0.0017,0,0,0,0,0,0.0087,0.0095,0.0081,0.0087,0.0085,0.0064,0.0058,0.0052,0.0038,0.0035,0.0017,0.0016,0.002,0.0025,0.0021,0.0031,0.0052,0.0059,0.0064,0.0068,0.011,0.0172,0.0186,0.0033,0.0033,0.0033,0,0,0.0094,0.0091,0.0094,0.0091,0.0082,0.009,0.0064,0.0061,0.0073,0.0031,0.0035,0.0015,0.0023,0.0038,0.0045,0.0044,0.011,0.0073,0.0075,0.0117,0.0178,0.0193,0.0206,0.0036,0.0036,0.0035,0,0,0.0114,0.0112,0.0125,0.0122,0.0111,0.0105,0.0104,0.0084,0.0088,0.0076,0.0063,0.0059,0.0051,0.0071,0.008,0.0113,0.0123,0.0122,0.0194,0.0253,0.0266,0.0278,0.0265,0.0276,0.0138,0.0138,0.0138,0,0.0122,0.0141,0.0126,0.0137,0.0146,0.0115,0.0137,0.0133,0.0108,0.0133,0.0087,0.011,0.0077,0.0144,0.0148,0.0124,0.0146,0.0159,0.0259,0.0271,0.0284,0.0269,0.0281,0.0139,0.0139,0.0138,0.0138,0,0.0155,0.0166,0.0175,0.0187,0.0193,0.0206,0.0201,0.0211,0.0195,0.0196,0.0233,0.0189,0.0226,0.0203,0.0174,0.0263,0.0241,0.0241,0.0239,0.03,0.0279,0.0291,0.014,0.014,0.0139,0.0139,0,0,0.0184,0.0199,0.0202,0.0233,0.0226,0.025,0.0274,0.0316,0.0379,0.0333,0.042,0.0373,0.0366,0.0379,0.035,0.0381,0.042,0.0355,0.0358,0.0334,0.0518,0.0397,0.0398,0.0449,0.0452,0.0455,0.0446,0,0.0218,0.0256,0.0259,0.0317,0.0339,0.0349,0.0392,0.0425,0.0444,0.0515,0.0496,0.0544,0.0434,0.046,0.0472,0.0456,0.0466,0.0421,0.0474,0.0474,0.0354,0.0415,0.0422,0.0408,0.0458,0.046,0.0462,0,0.0248,0.0275,0.0325,0.041,0.043,0.0463,0.0571,0.0609,0.0689,0.0716,0.0758,0.075,0.078,0.0683,0.0683,0.0669,0.0603,0.0563,0.0562,0.0472,0.0381,0.037,0.0429,0.0482,0.0481,0.0479,0.0478,0,0.0284,0.0336,0.039,0.0407,0.048,0.0535,0.0585,0.0662,0.0749,0.0855,0.0933,0.0958,0.0994,0.0943,0.0808,0.0779,0.0804,0.0752,0.0573,0.0561,0.0591,0.0575,0.077,0.077,0.077,0.0771,0.0771,0,0.0326,0.0377,0.0411,0.0454,0.0564,0.0584,0.0715,0.0793,0.0911,0.1054,0.104,0.1148,0.1074,0.1057,0.0912,0.0773,0.0879,0.061,0.0577,0.0584,0.0569,0.0668,0.0656,0.077,0.077,0.077,0.077,0,0.0355,0.0372,0.0467,0.0555,0.0581,0.0666,0.0798,0.0905,0.1,0.1193,0.1243,0.1329,0.1292,0.1156,0.1078,0.0906,0.078,0.0696,0.0661,0.0623,0.0464,0.0454,0.0521,0.0517,0.0514,0.0512,0.0509,0,0.0376,0.0408,0.0534,0.0601,0.0645,0.0739,0.0816,0.0939,0.109,0.1296,0.1437,0.145,0.1455,0.1247,0.0999,0.0737,0.0725,0.0558,0.049,0.0491,0.0452,0.0446,0.044,0.0513,0.0511,0.0509,0.0508,0,0.0428,0.0471,0.0551,0.0695,0.0795,0.0913,0.1058,0.1186,0.1365,0.1494,0.1678,0.167,0.1472,0.1223,0.0859,0.0683,0.0595,0.0509,0.0611,0.0548,0.0476,0.0439,0.0436,0.0494,0.0495,0.0496,0.0497,0.0497,0.0467,0.0545,0.0668,0.0821,0.0941,0.1125,0.1221,0.138,0.1585,0.1773,0.1791,0.1724,0.1495,0.0977,0.0714,0.0439,0.0451,0.0342,0.0352,0.0362,0.0336,0.0261,0.0229,0.0229,0.0229,0.0229,0.0229,0,0.0543,0.0639,0.0783,0.0995,0.1147,0.1201,0.1416,0.1482,0.167,0.177,0.1808,0.1505,0.1234,0.0952,0.0519,0.0258,0.0282,0.0181,0.0284,0.0299,0.0313,0.0288,0.0167,0.0166,0.0165,0.0164,0,0,0.0591,0.0755,0.0859,0.1154,0.1271,0.1429,0.1532,0.1611,0.1686,0.1688,0.1626,0.1563,0.1259,0.0932,0.0625,0.039,0.0397,0.0339,0.0413,0.0586,0.0602,0.0425,0.0404,0,0,0,0,0]}],[{"header":{"parameterUnit":"m.s-1","parameterCategory":2,"la1":30.2991,"la2":30.254,"lo1":-89.0895,"lo2":-89.0444,"dy":0.0017,"dx":0.0017,"nx":28,"ny":28,"refTime":"2023-08-14T03:00:00:Z","depth":"4","parameterNumber":2,"parameterNumberName":"U-component_of_CURRENTS"},"data":[0,0,0,0,0,0,0,0,0,0,0,0,0,0,0,0,0,0,0,0,0,0,0,0,0,0,0,0,0,0,0,0,0,0,0,0,0,0,0,0,0,0,0,0,0,0,0,0,0,0,0,0,0,0,0,0,0,0,0.1213,0.1212,0,0.1172,0.1171,0.117,0.1215,0.1217,0.1219,0.1221,0.1245,0.1243,0.1242,0,0,0,0,0,0,0,0,0,0,0,0,0,0.1244,0.1243,0.1213,0.1212,0.1212,0.1172,0.1171,0.117,0.1215,0.1217,0.122,0.1222,0.1245,0.1244,0.1242,0,0,0,0,0,0,0,0,0,0,0,0,0,0.1216,0.1243,0.1213,0.1232,0.1234,0.1172,0.1171,0.117,0.1214,0.1217,0.122,0.1223,0.1246,0.1244,0.1242,0.1169,0,0,0.1236,0.1235,0,0,0,0,0,0,0,0,0.1218,0.1214,0.123,0.1231,0.1233,0.1205,0.1191,0.1174,0.1214,0.1218,0.1221,0.1225,0.1237,0.1236,0.1216,0.117,0.1171,0.1236,0.1235,0.1234,0.1233,0,0,0,0,0,0,0,0.122,0.1216,0.1193,0.1229,0.1231,0.1214,0.1214,0.1187,0.1209,0.1218,0.1222,0.1222,0.1239,0.1217,0.1217,0.1172,0.1236,0.1234,0.1233,0.1232,0.1331,0.1335,0,0,0,0,0,0,0.1232,0.1218,0.1194,0.1192,0.1236,0.1212,0.1211,0.1208,0.1209,0.1212,0.1219,0.1224,0.1219,0.1219,0.1218,0.1288,0.1234,0.1232,0.1231,0.1327,0.1332,0.1336,0,0,0,0,0,0,0.1233,0.123,0.1196,0.1207,0.1202,0.1209,0.1204,0.1205,0.1228,0.121,0.1215,0.1246,0.1222,0.1221,0.1238,0.1284,0.1231,0.1229,0.1323,0.1329,0.1334,0.1329,0,0,0,0,0,0,0.1234,0.1231,0.1255,0.1208,0.1202,0.1173,0.1201,0.1203,0.1222,0.1229,0.1233,0.1236,0.1224,0.1241,0.1236,0.1281,0.1228,0.1318,0.1326,0.1332,0.1325,0.1334,0.1342,0,0,0,0,0,0.1235,0.1243,0.1256,0.1255,0.1228,0.1173,0.1167,0.118,0.1221,0.1215,0.1243,0.1238,0.1286,0.124,0.1234,0.1279,0.1315,0.1323,0.1332,0.1321,0.1332,0.1342,0,0,0,0,0,0,0.1267,0.1247,0.1261,0.1265,0.1233,0.1182,0.1185,0.1196,0.1208,0.1236,0.1237,0.1239,0.1293,0.129,0.124,0.1344,0.1319,0.1326,0.1313,0.1324,0.1332,0.1375,0.1226,0,0,0,0,0,0.1285,0.129,0.1254,0.1258,0.1243,0.1223,0.1216,0.1218,0.1211,0.1221,0.1212,0.1253,0.1312,0.132,0.1344,0.1351,0.1374,0.1402,0.1411,0.1417,0.1458,0.1539,0.1557,0.1364,0.1364,0.1364,0,0,0.1289,0.1289,0.1288,0.1266,0.1244,0.1209,0.1225,0.1209,0.1207,0.1219,0.1215,0.1267,0.1328,0.1366,0.1392,0.1367,0.1474,0.1428,0.1432,0.1471,0.1549,0.1567,0.1584,0.137,0.1369,0.1368,0,0,0.1282,0.1303,0.1296,0.127,0.1252,0.1226,0.1232,0.1185,0.1201,0.1204,0.1256,0.1343,0.1351,0.1419,0.1465,0.1539,0.1527,0.1557,0.1609,0.1684,0.17,0.1714,0.1704,0.1717,0.1548,0.1548,0.1548,0,0.1304,0.1279,0.1281,0.1261,0.1239,0.1238,0.1202,0.1206,0.1177,0.1216,0.1218,0.1362,0.1398,0.1522,0.1571,0.1558,0.1568,0.1544,0.169,0.1706,0.172,0.1707,0.1722,0.1549,0.1549,0.1548,0.1548,0,0.1251,0.1258,0.1243,0.1222,0.1203,0.1164,0.1158,0.1161,0.1195,0.1231,0.1351,0.1408,0.1519,0.1551,0.1587,0.1728,0.1686,0.1691,0.1646,0.1738,0.1719,0.1734,0.155,0.1549,0.1549,0.1549,0,0,0.1213,0.1211,0.1201,0.1209,0.1175,0.1151,0.1159,0.1179,0.1255,0.1282,0.1385,0.1525,0.1608,0.1673,0.1725,0.1799,0.1894,0.1795,0.1798,0.1752,0.2,0.1819,0.1818,0.191,0.1915,0.1919,0.1918,0,0.1163,0.1122,0.1132,0.1105,0.1078,0.1101,0.112,0.1171,0.1243,0.1339,0.1479,0.161,0.1637,0.1725,0.1807,0.1917,0.1947,0.189,0.1949,0.195,0.1754,0.1836,0.1933,0.193,0.1933,0.1936,0.1938,0,0.1076,0.1075,0.1027,0.108,0.1073,0.1081,0.1144,0.1181,0.1342,0.1411,0.157,0.1683,0.1862,0.1852,0.2036,0.1995,0.2009,0.2045,0.2045,0.1905,0.1803,0.1842,0.1966,0.1964,0.1962,0.196,0.1958,0,0.0991,0.1001,0.097,0.0965,0.1015,0.1051,0.1102,0.1228,0.132,0.1498,0.161,0.1788,0.193,0.2006,0.2112,0.209,0.226,0.2224,0.2042,0.2025,0.2182,0.2167,0.2308,0.2308,0.2308,0.2308,0.2308,0,0.0897,0.0893,0.0956,0.0936,0.0968,0.1046,0.1145,0.121,0.1405,0.1547,0.1687,0.1817,0.1991,0.2111,0.2139,0.2146,0.2276,0.2077,0.2041,0.217,0.2156,0.2187,0.2173,0.2308,0.2308,0.2308,0.2308,0,0.0809,0.0822,0.0829,0.0899,0.0923,0.0973,0.1148,0.1259,0.1432,0.1617,0.1691,0.1909,0.2037,0.213,0.2257,0.2182,0.2198,0.2137,0.2237,0.2202,0.1885,0.1872,0.1941,0.1935,0.193,0.1926,0.1922,0,0.0764,0.0745,0.0783,0.0806,0.085,0.0953,0.1027,0.1216,0.1355,0.1652,0.1742,0.1942,0.2042,0.2091,0.2153,0.2125,0.2088,0.2041,0.2004,0.1904,0.1862,0.1856,0.185,0.1915,0.1913,0.1912,0.1911,0,0.0692,0.0702,0.0702,0.0745,0.0812,0.0888,0.1039,0.1134,0.1386,0.1559,0.1773,0.1853,0.196,0.2018,0.1995,0.1975,0.2066,0.1989,0.1999,0.1963,0.1873,0.1835,0.1835,0.1894,0.1897,0.1898,0.1899,0,0.065,0.0645,0.0647,0.0704,0.0774,0.0846,0.0909,0.1102,0.1256,0.1605,0.1655,0.1832,0.1986,0.1935,0.1931,0.1887,0.1839,0.176,0.178,0.1799,0.1744,0.1608,0.1541,0,0,0,0,0,0.0599,0.0587,0.0628,0.0659,0.0736,0.08,0.0942,0.1039,0.1277,0.1398,0.1547,0.1637,0.1683,0.1759,0.1674,0.1767,0.1784,0.165,0.169,0.1801,0.182,0.1763,0,0,0,0,0,0,0.0564,0.0545,0.0598,0.0638,0.0695,0.0771,0.0875,0.1003,0.1099,0.1337,0.1385,0.1527,0.159,0.1741,0.1658,0.1659,0.1639,0.1737,0.1731,0.179,0.1807,0.1823,0.1771,0,0,0,0,0]},{"header":{"parameterUnit":"m.s-1","parameterCategory":2,"la1":30.2991,"la2":30.254,"lo1":-89.0895,"lo2":-89.0444,"dy":0.0017,"dx":0.0017,"nx":28,"ny":28,"refTime":"2023-08-14T03:00:00:Z","depth":"4","parameterNumber":3,"parameterNumberName":"V-component_of_CURRENTS"},"data":[0,0,0,0,0,0,0,0,0,0,0,0,0,0,0,0,0,0,0,0,0,0,0,0,0,0,0,0,0,0,0,0,0,0,0,0,0,0,0,0,0,0,0,0,0,0,0,0,0,0,0,0,0,0,0,0,0,0,0.0125,0.0125,0,0.014,0.014,0.0141,0.0122,0.0121,0.012,0.012,0.0075,0.0075,0.0075,0,0,0,0,0,0,0,0,0,0,0,0,0,0.0085,0.0086,0.0125,0.0125,0.0125,0.014,0.014,0.0141,0.0122,0.0121,0.012,0.0119,0.0076,0.0075,0.0075,0,0,0,0,0,0,0,0,0,0,0,0,0,0.0103,0.0086,0.0125,0.0116,0.0116,0.014,0.014,0.0141,0.0122,0.0121,0.012,0.0119,0.0076,0.0075,0.0074,0.0095,0,0,0.0073,0.0072,0,0,0,0,0,0,0,0,0.0102,0.0105,0.0118,0.0117,0.0116,0.0127,0.011,0.0122,0.0123,0.0121,0.0119,0.0118,0.0087,0.0085,0.0094,0.0093,0.0091,0.0073,0.0072,0.0072,0.0072,0,0,0,0,0,0,0,0.0101,0.0104,0.0132,0.0118,0.0117,0.0114,0.0115,0.0113,0.0111,0.0121,0.012,0.0119,0.0086,0.0095,0.0092,0.0091,0.0073,0.0072,0.0072,0.0071,0.0079,0.008,0,0,0,0,0,0,0.0097,0.0103,0.0132,0.0133,0.0104,0.0115,0.0117,0.0126,0.0112,0.0109,0.012,0.0118,0.0096,0.0093,0.0091,0.0109,0.0072,0.0071,0.0071,0.0079,0.008,0.008,0,0,0,0,0,0,0.0097,0.01,0.0131,0.0116,0.012,0.0117,0.0127,0.0127,0.0135,0.0112,0.0108,0.013,0.0095,0.0092,0.0081,0.0107,0.0071,0.007,0.0078,0.0079,0.008,0.0149,0,0,0,0,0,0,0.0096,0.01,0.0106,0.0116,0.012,0.0156,0.0128,0.0128,0.0136,0.0134,0.0118,0.0113,0.0094,0.0082,0.008,0.0106,0.007,0.0077,0.0079,0.008,0.0146,0.0153,0.0158,0,0,0,0,0,0.0094,0.0113,0.0106,0.0109,0.0129,0.0157,0.0159,0.0153,0.0138,0.0154,0.0128,0.0114,0.0088,0.0082,0.008,0.0106,0.0077,0.0078,0.008,0.0144,0.0151,0.0158,0,0,0,0,0,0,0.0103,0.0113,0.0106,0.0127,0.0142,0.0153,0.0166,0.0161,0.0157,0.0148,0.012,0.0113,0.0112,0.0098,0.0092,0.0109,0.0081,0.0082,0.0131,0.0138,0.0143,0.0149,0.007,0,0,0,0,0,0.0106,0.0117,0.0131,0.0146,0.0159,0.0163,0.0172,0.0172,0.0168,0.0166,0.0154,0.0135,0.0119,0.0118,0.0103,0.0119,0.0071,0.0133,0.0139,0.0144,0.0146,0.0079,0.0079,0.0085,0.0084,0.0084,0,0,0.0112,0.0118,0.0124,0.0148,0.0159,0.019,0.0167,0.019,0.0207,0.0162,0.0178,0.0152,0.0124,0.0132,0.0132,0.0125,0.012,0.0146,0.015,0.015,0.008,0.0079,0.0079,0.0085,0.0085,0.0085,0,0,0.0141,0.014,0.0166,0.018,0.02,0.021,0.022,0.0238,0.0239,0.0256,0.0214,0.0196,0.0201,0.0173,0.0161,0.019,0.0144,0.0198,0.0243,0.0179,0.0177,0.0175,0.0122,0.0115,0.021,0.0211,0.0211,0,0.0148,0.0179,0.018,0.0209,0.0224,0.0223,0.0262,0.0269,0.0278,0.0278,0.027,0.0238,0.0218,0.0199,0.0216,0.0204,0.0163,0.0222,0.0185,0.0182,0.0179,0.0125,0.0116,0.0214,0.0214,0.0213,0.0213,0,0.0197,0.022,0.024,0.0274,0.0296,0.0326,0.0339,0.0353,0.0356,0.0358,0.0345,0.0306,0.0285,0.0283,0.0267,0.0243,0.0219,0.0192,0.0168,0.0183,0.0125,0.0114,0.0219,0.0218,0.0217,0.0216,0,0,0.0224,0.0266,0.0276,0.0301,0.0329,0.0361,0.0385,0.0413,0.0428,0.042,0.042,0.0398,0.037,0.0352,0.0314,0.0272,0.0225,0.0241,0.0236,0.019,0.0089,0.0113,0.0104,0.0192,0.019,0.0189,0.006,0,0.0265,0.0334,0.0343,0.0409,0.0446,0.0444,0.0473,0.0489,0.0493,0.0491,0.0433,0.0426,0.0397,0.0388,0.0338,0.025,0.02,0.0263,0.0081,0.0076,0.0095,0.0093,0.0184,0.0052,0.0049,0.0047,0.0046,0,0.0319,0.0352,0.0429,0.0476,0.0495,0.0538,0.0577,0.0604,0.0587,0.0575,0.0538,0.0494,0.0431,0.0399,0.0251,0.0294,0.0204,0.013,0.0123,0.0113,0.008,0.003,0.0026,0.0028,0.0029,0.0031,0.0032,0,0.035,0.0417,0.0481,0.0496,0.0551,0.0586,0.0626,0.0641,0.0666,0.0628,0.0625,0.0531,0.0489,0.036,0.0231,0.0238,0.0054,0.0033,-0.004,-0.004,-0.0056,-0.0053,-0.0088,-0.0088,-0.0088,-0.0087,-0.0087,0,0.0387,0.0437,0.0509,0.0538,0.0612,0.0646,0.0724,0.0721,0.0737,0.0757,0.068,0.0647,0.048,0.0363,0.0231,0.0073,0.0046,-0.0035,-0.0073,-0.0021,-0.0013,-0.0063,-0.0058,-0.0092,-0.0091,-0.009,-0.0089,0,0.0411,0.0453,0.0524,0.06,0.0629,0.0694,0.0791,0.0847,0.0842,0.0852,0.0841,0.0732,0.0577,0.0403,0.0182,0.0088,-0.0079,-0.0135,-0.0058,-0.0089,-0.0132,-0.0122,-0.0229,-0.023,-0.023,-0.023,-0.023,0,0.042,0.0466,0.0569,0.0619,0.0662,0.0764,0.0837,0.0884,0.0928,0.0898,0.089,0.0764,0.0664,0.0376,0.0187,-0.0076,-0.0109,-0.0188,-0.0162,-0.0121,-0.0148,-0.0137,-0.0128,-0.023,-0.023,-0.023,-0.023,0,0.0428,0.0482,0.055,0.0657,0.075,0.0836,0.0933,0.0965,0.1005,0.1006,0.0928,0.0787,0.0607,0.0382,0.0183,-0.0008,-0.0129,-0.0191,-0.0192,-0.0168,-0.0124,-0.0148,-0.0138,-0.0231,-0.0231,-0.0231,-0.0231,0,0.0437,0.0496,0.06,0.0696,0.0801,0.0874,0.0924,0.098,0.102,0.0991,0.0961,0.0774,0.0674,0.0415,0.0225,0.0051,0.0008,-0.0035,-0.0045,-0.0047,0.0053,0.014,0.008,0,0,0,0,0,0.0431,0.0518,0.0624,0.072,0.0821,0.0878,0.0974,0.1018,0.1053,0.1013,0.0991,0.0824,0.0559,0.0441,0.0269,0.0202,-0.0037,-0.0004,-0.0095,-0.0235,-0.0234,-0.0145,0,0,0,0,0,0,0.0442,0.0539,0.0628,0.0724,0.079,0.0891,0.096,0.0977,0.0955,0.0961,0.0821,0.0786,0.052,0.0644,0.026,0.0209,0.0133,-0.012,-0.0123,-0.0236,-0.0235,-0.0234,-0.0142,0,0,0,0,0]}]]